sat.trackr.live / text

‹ back to catalog

STARLINK-1376

NORAD 45570 · 2020-025AR

PAYLOAD ACTIVE UNKNOWN

§ Identity

Operator
Country
US
Launch date
2020-04-22
Launch site
AFETR
Launch vehicle
Mass (kg)
RCS (m²)

Purposes: comms

External: N2YO · Heavens-Above · Gunter

§ Orbital elements

Epoch: 2026-05-25T02:22:57.779040Z

Period
93.70 min
Inclination
53.1562°
Eccentricity
0.0005413
Mean motion
15.36784927 rev/d
Perigee alt
451.9 km
Apogee alt
459.3 km
Semi-major
6,833.8 km
B*
1.1897e-3
RAAN
81.0519°
Arg perigee
63.5423°
Mean anomaly
296.6136°
Rev number
33,722

§ Raw data

STARLINK-13761 45570U 20025AR  26145.09927985  .00043266  00000+0  11897-2 0  99952 45570  53.1562  81.0519 0005413  63.5423 296.6136 15.36784927337227

JSON: /api/v1/satellites/45570 · /tle

For live sub-satellite position, see the globe view (requires WebGL).

§ Visibility from observer

Set your observer location to see the next 7 days of passes ≥ 10°. The values pass through the URL so the page stays shareable.

No JS? Fill the form by hand. The geolocation button needs JavaScript.